Home   Weather   Bühl   Past weeks

Flag for Germany Past Weather in Bühl, Baden-Württemberg, Germany — Yesterday and Last 2 Weeks

Now
45 °F

Light rain. Broken clouds.


Feels Like: 45 °F
Forecast: 37 / 47 °F
Wind: 2 mph from Southeast

Location: Karlsruhe - Baden Wurttemberg

Current Time: Apr 25, 2017 at 8:30:01 pm

Latest Report: Apr 25, 2017 at 7:50 pm


Visibility: N/A

Pressure: 29.80 "Hg

Humidity: 81%

Dew Point: 39 °F

Location of BühlLocation

Past Weather in Bühl — Graph

°F

Bühl Temperature Yesterday

Maximum temperature yesterday: 64 °F (at 4:20 pm)
Minimum temperature yesterday: 32 °F (at 6:20 am)
Average temperature yesterday: 52 °F

High & Low Weather Summary for the Past Weeks

 TemperatureHumidityPressure
High66 °F (Apr 10, 7:20 pm)100% (Apr 16, 5:50 am)30.60 "Hg (Apr 16, 5:50 am)
Low27 °F (Apr 20, 5:50 am)25% (Apr 21, 3:20 pm)29.74 "Hg (Apr 25, 4:50 am)
Average49 °F65%30.17 "Hg
* Reported Apr 10 7:20 pm — Apr 25 7:20 pm, Bühl, Weather by CustomWeather, © 2017

Note: Actual official high and low records may vary slightly from our data, if they occured in-between our weather recording intervals... More about our weather records

Advertising

Bühl Weather History for the Previous 24 Hours

Scroll right to see more
 ConditionsComfort  
Time TempWeatherWind HumidityBarometerVisibility
7:20 pm
Tue, Apr 25
45 °FLight rain. Broken clouds.2 mph81%29.83 "HgN/A
6:50 pm45 °FLight rain. Partly sunny.2 mph76%29.83 "HgN/A
6:20 pm45 °FLight rain. Partly sunny.6 mph76%29.83 "HgN/A
5:50 pm46 °FLight rain. Partly sunny.8 mph66%29.80 "HgN/A
5:20 pm48 °FSprinkles. Partly sunny.5 mph62%29.80 "HgN/A
4:50 pm50 °FSprinkles. Scattered clouds.5 mph62%29.80 "HgN/A
4:20 pm50 °FSprinkles. Scattered clouds.2 mph71%29.80 "HgN/A
3:50 pm50 °FScattered clouds.3 mph67%29.80 "HgN/A
3:20 pm50 °FScattered clouds.5 mph67%29.80 "HgN/A
2:50 pm50 °FScattered clouds.7 mph71%29.80 "HgN/A
2:20 pm52 °FPartly sunny.8 mph72%29.80 "HgN/A
1:50 pm52 °FPartly sunny.9 mph67%29.80 "HgN/A
1:20 pm54 °FBroken clouds.7 mph63%29.80 "HgN/A
12:50 pm55 °FBroken clouds.8 mph59%29.80 "HgN/A
12:20 pm55 °FScattered clouds.9 mph59%29.80 "HgN/A
11:50 am55 °FSunny.9 mph63%29.80 "Hg10 mi
11:20 am54 °FPassing clouds.7 mph63%29.80 "HgN/A
10:50 am52 °FPassing clouds.8 mph67%29.80 "HgN/A
10:20 am52 °FPassing clouds.8 mph67%29.80 "HgN/A
9:50 am52 °FPassing clouds.9 mph62%29.77 "HgN/A
9:20 am52 °FSunny.6 mph62%29.77 "Hg10 mi
8:50 am50 °FSunny.7 mph67%29.77 "Hg10 mi
8:20 am48 °FSunny.5 mph71%29.77 "Hg10 mi
7:50 am48 °FSunny.5 mph71%29.77 "Hg10 mi
7:20 am46 °FSunny.6 mph71%29.77 "Hg10 mi
6:50 am46 °FSunny.5 mph71%29.77 "Hg10 mi
6:20 am45 °FSunny.5 mph76%29.74 "Hg10 mi
5:50 am45 °FClear.5 mph71%29.74 "Hg10 mi
5:20 am46 °FPassing clouds.5 mph66%29.74 "HgN/A
4:50 am46 °FClear.6 mph66%29.74 "Hg10 mi
10:50 pm
Mon, Apr 24
50 °FClear.3 mph62%29.80 "Hg10 mi
9:50 pm54 °FClear.3 mph54%29.80 "Hg10 mi
9:20 pm55 °FClear.1 mph51%29.80 "Hg10 mi
8:50 pm57 °FClear.No wind44%29.80 "Hg10 mi
8:20 pm61 °FSunny.No wind39%29.80 "Hg10 mi
Weather by CustomWeather, © 2017

See weather overviewHow to use our weather pages